This is the latest recevied weather packets stored in our database for station/object KB9HUO. If no packets are shown the sender has not sent any weather packets the latest 10 day(s).
| Time | Temp. | Humidity | Pressure | Rain* | Wind** | Luminosity | Snow |
|---|---|---|---|---|---|---|---|
| 1777990502 | 16.11° C | 83% | 1009.1 hPa | 0 mm | - | 114 W/m² | - |
| 1777989895 | 16.11° C | 84% | 1009.2 hPa | 0 mm | - | 127 W/m² | - |
| 1777989592 | 16.11° C | 84% | 1009.1 hPa | 0 mm | - | 115 W/m² | - |
| 1777989289 | 16.11° C | 84% | 1009.2 hPa | 0 mm | - | 87 W/m² | - |
| 1777988985 | 16.11° C | 85% | 1009.1 hPa | 0 mm | - | 95 W/m² | - |
| 1777988682 | 15.56° C | 86% | 1009.3 hPa | 0 mm | - | 97 W/m² | - |
| 1777988378 | 15.56° C | 87% | 1008.9 hPa | 0 mm | - | 103 W/m² | - |
| 1777988076 | 15.56° C | 88% | 1009.2 hPa | 0 mm | - | 98 W/m² | - |
| 1777987771 | 15.56° C | 88% | 1009.2 hPa | 0 mm | - | 92 W/m² | - |
| 1777987468 | 15.56° C | 88% | 1009.3 hPa | 0 mm | - | 74 W/m² | - |
| 1777987166 | 15° C | 89% | 1009.2 hPa | 0 mm | - | 58 W/m² | - |
| 1777986863 | 15° C | 89% | 1009.2 hPa | 0 mm | - | 51 W/m² | - |
| 1777986560 | 15° C | 89% | 1009.5 hPa | 0 mm | - | 68 W/m² | - |
| 1777986258 | 15° C | 90% | 1009.6 hPa | 0 mm | - | 52 W/m² | - |
| 1777985955 | 15° C | 90% | 1009.3 hPa | 0 mm | - | 50 W/m² | - |
| 1777985653 | 15° C | 91% | 1009.3 hPa | 0 mm | - | 53 W/m² | - |
| 1777985349 | 14.44° C | 91% | 1009.1 hPa | 0 mm | - | 51 W/m² | - |
| 1777985046 | 14.44° C | 92% | 1009.5 hPa | 0 mm | - | 53 W/m² | - |
| 1777984742 | 14.44° C | 92% | 1009.1 hPa | 0 mm | - | 59 W/m² | - |
| 1777984439 | 14.44° C | 92% | 1009.2 hPa | 0 mm | - | 54 W/m² | - |
| 1777984135 | 14.44° C | 92% | 1009.1 hPa | 0 mm | - | 47 W/m² | - |
| 1777983832 | 14.44° C | 93% | 1009.2 hPa | 0 mm | - | 34 W/m² | - |
| 1777983529 | 14.44° C | 93% | 1009.3 hPa | 0 mm | - | 31 W/m² | - |
| 1777983226 | 14.44° C | 92% | 1009.5 hPa | 0 mm | - | 26 W/m² | - |
| 1777982922 | 14.44° C | 92% | 1009.3 hPa | 0 mm | - | 29 W/m² | - |
* Rain latest hour (hover to see other rain measurements)
** Current wind speed in m/s (hover to see current wind gust speed)